Flag for Canada

Past Weather in Pond Inlet, Nunavut, Canada — Yesterday and Last 2 Weeks

Now
25 °F

Broken clouds.


Feels Like: 14 °F
Forecast: 28 / 19 °F
Wind: 12 mph from Southeast

Location: Pond Inlet
Current Time: Sep 21, 2020 at 1:06:11 pm
Latest Report: Sep 21, 2020 at 12:00 pm
Visibility: 40 mi
Pressure29.86 "Hg
Humidity: 74%
Dew Point: 18 °F
Location of Pond InletLocation

Past Weather in Pond Inlet — Graph

°F

Pond Inlet Temperature Yesterday

Maximum temperature yesterday: 28 °F (at 12:01 am)
Minimum temperature yesterday: 25 °F (at 7:00 pm)
Average temperature yesterday: 27 °F

High & Low Weather Summary for the Past Weeks

 TemperatureHumidityPressure
High41 °F (Sep 6, 2:00 pm)100% (Sep 12, 10:10 pm)29.98 "Hg (Sep 12, 10:10 pm)
Low19 °F (Sep 21, 4:00 am)60% (Sep 14, 1:00 pm)29.53 "Hg (Sep 18, 3:38 pm)
Average31 °F84%29.75 "Hg
* Reported Sep 6 12:00 pm — Sep 21 12:00 pm, Pond Inlet. Weather by CustomWeather, © 2020

Note: Actual official high and low records may vary slightly from our data, if they occured in-between our weather recording intervals... More about our weather records

Pond Inlet Weather History for the Previous 24 Hours

Scroll right to see more
 ConditionsComfort  
Time TempWeatherWind HumidityBarometerVisibility
12:00 pm
Mon, Sep 21
25 °FBroken clouds.12 mph74%29.86 "Hg40 mi
11:00 am25 °FPartly sunny.12 mph74%29.84 "Hg40 mi
10:00 am23 °FPassing clouds.12 mph80%29.83 "Hg9 mi
9:00 am21 °FPassing clouds.14 mph80%29.81 "Hg9 mi
8:00 am21 °FPassing clouds.14 mph80%29.80 "Hg9 mi
7:00 am21 °FPartly sunny.13 mph80%29.79 "Hg9 mi
6:00 am21 °FSunny.12 mph86%29.78 "Hg9 mi
5:00 am19 °FSunny.12 mph93%29.77 "Hg9 mi
4:00 am19 °FClear.12 mph86%29.76 "Hg9 mi
3:00 am23 °FOvercast.9 mph86%29.75 "Hg9 mi
2:00 am25 °FOvercast.10 mph93%29.73 "Hg9 mi
1:39 am25 °FOvercast.9 mph93%29.74 "Hg9 mi
1:22 am25 °FOvercast.9 mph93%29.73 "Hg9 mi
1:06 am25 °FLight snow. Overcast.9 mph93%29.73 "Hg9 mi
12:58 am25 °FMostly cloudy.9 mph93%29.73 "Hg9 mi
12:25 am27 °FLight snow. Mostly cloudy.9 mph86%29.73 "Hg9 mi
12:00 am25 °FMostly cloudy.10 mph86%29.72 "Hg9 mi
11:00 pm
Sun, Sep 20
25 °FOvercast.9 mph93%29.72 "Hg9 mi
8:00 pm25 °FMostly cloudy.9 mph93%29.72 "Hg9 mi
7:00 pm25 °FOvercast.9 mph100%29.72 "Hg9 mi
6:42 pm27 °FMostly cloudy.9 mph93%29.72 "Hg9 mi
6:00 pm27 °FLight snow. Overcast.7 mph100%29.71 "Hg9 mi
5:20 pm27 °FLight snow. Cloudy.6 mph100%29.71 "Hg6 mi
5:14 pm27 °FLight snow. Mostly cloudy.6 mph100%29.71 "Hg5 mi
4:34 pm28 °FLight snow. More clouds than sun.6 mph86%29.71 "Hg9 mi
4:08 pm28 °FLight snow. Mostly cloudy.7 mph93%29.71 "Hg9 mi
3:21 pm28 °FLight snow. More clouds than sun.8 mph93%29.71 "Hg9 mi
3:00 pm28 °FLight snow. More clouds than sun.6 mph86%29.71 "Hg9 mi
2:26 pm28 °FCloudy.5 mph86%29.71 "Hg9 mi
2:00 pm28 °FLight snow. Overcast.7 mph86%29.71 "Hg9 mi
1:00 pm28 °FLight snow. More clouds than sun.8 mph86%29.71 "Hg9 mi
Weather by CustomWeather, © 2020

See weather overview